| time (UTC) | temp F | wind direction | speed MPH | gust MPH | rain 1hr in | rain 24hr in | rain mn in | humidity % | barometer mb |
| 20260505073107 | 45 | 187 | 0.0 | 0.0 | 0.00 | 0.02 | 0.00 | 83 | 1008.6 |
| 20260505071601 | 45 | 187 | 0.0 | 0.0 | 0.00 | 0.02 | 0.00 | 83 | 1008.4 |
| 20260505070059 | 45 | 187 | 0.0 | 0.0 | 0.00 | 0.02 | 0.00 | 82 | 1008.1 |
| 20260505064604 | 46 | 187 | 0.0 | 0.0 | 0.00 | 0.03 | 0.00 | 82 | 1007.9 |
| 20260505063059 | 46 | 187 | 0.0 | 0.0 | 0.00 | 0.03 | 0.00 | 82 | 1007.5 |
| 20260505061600 | 46 | 187 | 0.0 | 0.0 | 0.00 | 0.03 | 0.00 | 81 | 1007.2 |
| 20260505060104 | 46 | 187 | 0.0 | 0.0 | 0.00 | 0.03 | 0.00 | 81 | 1007.0 |
| 20260505054606 | 46 | 187 | 0.0 | 0.0 | 0.00 | 0.03 | 0.00 | 81 | 1006.7 |
| 20260505053112 | 46 | 187 | 0.0 | 0.0 | 0.00 | 0.03 | 0.00 | 80 | 1006.6 |
| 20260505051559 | 46 | 187 | 0.0 | 0.0 | 0.00 | 0.03 | 0.00 | 80 | 1006.3 |
| 20260505041614 | 48 | 187 | 0.0 | 0.0 | 0.00 | 0.04 | 0.00 | 76 | 1005.7 |
| 20260505040059 | 48 | 187 | 0.0 | 0.0 | 0.00 | 0.04 | 0.00 | 76 | 1005.5 |
| 20260505034604 | 49 | 187 | 0.0 | 0.0 | 0.00 | 0.08 | 0.00 | 75 | 1005.1 |
| 20260505033059 | 49 | 187 | 0.0 | 0.0 | 0.00 | 0.08 | 0.00 | 75 | 1004.8 |
| 20260505031607 | 49 | 187 | 0.0 | 0.0 | 0.00 | 0.08 | 0.00 | 74 | 1004.4 |
| 20260505030059 | 50 | 187 | 0.0 | 0.0 | 0.00 | 0.08 | 0.00 | 73 | 1004.2 |
| 20260505024559 | 50 | 187 | 0.0 | 0.0 | 0.00 | 0.08 | 0.03 | 72 | 1004.0 |
| 20260505023104 | 50 | 187 | 0.0 | 0.0 | 0.00 | 0.08 | 0.03 | 71 | 1003.9 |
| 20260505021559 | 50 | 187 | 0.0 | 0.0 | 0.00 | 0.08 | 0.03 | 71 | 1003.7 |
| 20260505020059 | 49 | 187 | 0.0 | 0.0 | 0.00 | 0.08 | 0.03 | 71 | 1003.7 |
| 20260505014600 | 50 | 187 | 0.0 | 0.0 | 0.00 | 0.08 | 0.03 | 71 | 1003.6 |
| 20260505013102 | 50 | 187 | 0.0 | 0.0 | 0.00 | 0.08 | 0.03 | 71 | 1003.5 |
| 20260505011600 | 50 | 187 | 0.0 | 0.0 | 0.00 | 0.08 | 0.03 | 70 | 1003.4 |
| 20260505010059 | 50 | 187 | 0.0 | 0.0 | 0.00 | 0.08 | 0.03 | 68 | 1003.4 |
| 20260505004559 | 50 | 187 | 0.0 | 0.0 | 0.00 | 0.08 | 0.03 | 65 | 1003.4 |
| 20260505003059 | 51 | 187 | 0.0 | 0.0 | 0.00 | 0.08 | 0.03 | 64 | 1003.3 |
| 20260505001600 | 51 | 187 | 0.0 | 0.0 | 0.00 | 0.08 | 0.03 | 59 | 1002.9 |
| 20260505000108 | 51 | 187 | 0.0 | 0.0 | 0.00 | 0.08 | 0.03 | 59 | 1002.9 |
| 20260504234634 | 50 | 186 | 0.0 | 0.0 | 0.00 | 0.08 | 0.03 | 61 | 1002.5 |
| 20260504233103 | 50 | 187 | 0.0 | 0.0 | 0.00 | 0.08 | 0.03 | 61 | 1002.3 |
| 20260504231605 | 50 | 187 | 0.0 | 0.0 | 0.00 | 0.08 | 0.03 | 60 | 1002.1 |
| 20260504230100 | 51 | 187 | 0.0 | 0.0 | 0.00 | 0.08 | 0.03 | 58 | 1002.1 |
| 20260504224602 | 51 | 187 | 0.0 | 0.0 | 0.00 | 0.08 | 0.03 | 57 | 1002.1 |
| 20260504223059 | 51 | 187 | 0.0 | 0.0 | 0.00 | 0.08 | 0.03 | 56 | 1001.9 |
| 20260504221608 | 52 | 187 | 0.0 | 0.0 | 0.00 | 0.08 | 0.03 | 57 | 1001.6 |
| 20260504220059 | 52 | 187 | 0.0 | 0.0 | 0.00 | 0.08 | 0.03 | 55 | 1001.6 |
| 20260504214559 | 52 | 187 | 0.0 | 0.0 | 0.00 | 0.08 | 0.03 | 53 | 1001.3 |
| 20260504213059 | 53 | 187 | 0.0 | 0.0 | 0.00 | 0.08 | 0.03 | 54 | 1001.3 |
| 20260504211559 | 53 | 187 | 0.0 | 0.0 | 0.00 | 0.08 | 0.03 | 53 | 1001.0 |
| 20260504210110 | 54 | 187 | 0.0 | 0.0 | 0.00 | 0.08 | 0.03 | 52 | 1000.7 |
| 20260504204604 | 53 | 187 | 0.0 | 0.0 | 0.00 | 0.08 | 0.03 | 55 | 1000.4 |
| 20260504203103 | 53 | 187 | 0.0 | 0.0 | 0.00 | 0.08 | 0.03 | 58 | 1000.2 |
| 20260504201609 | 53 | 187 | 0.0 | 0.0 | 0.00 | 0.08 | 0.03 | 61 | 999.8 |
| 20260504194609 | 54 | 187 | 0.0 | 0.0 | 0.00 | 0.08 | 0.03 | 66 | 999.2 |
| 20260504193058 | 51 | 186 | 0.0 | 0.0 | 0.00 | 0.08 | 0.03 | 71 | 999.1 |
| 20260504191559 | 51 | 186 | 0.0 | 0.0 | 0.00 | 0.08 | 0.03 | 73 | 999.0 |
| 20260504190128 | 50 | 186 | 0.0 | 0.0 | 0.00 | 0.08 | 0.03 | 74 | 998.6 |
| 20260504184600 | 49 | 186 | 0.0 | 0.0 | 0.00 | 0.08 | 0.03 | 77 | 998.5 |
| 20260504183059 | 48 | 186 | 0.0 | 0.0 | 0.00 | 0.08 | 0.03 | 77 | 998.2 |
| 20260504181603 | 47 | 186 | 0.0 | 0.0 | 0.00 | 0.08 | 0.03 | 81 | 998.0 |
| 20260504180159 | 46 | 186 | 0.0 | 0.0 | 0.00 | 0.08 | 0.03 | 82 | 997.9 |
| 20260504174600 | 46 | 186 | 0.0 | 0.0 | 0.00 | 0.08 | 0.03 | 82 | 997.6 |
| 20260504173118 | 46 | 186 | 0.0 | 0.0 | 0.00 | 0.08 | 0.03 | 84 | 997.4 |
| 20260504171558 | 45 | 186 | 0.0 | 0.0 | 0.00 | 0.08 | 0.03 | 84 | 997.0 |
| 20260504140119 | 44 | 186 | 0.0 | 0.0 | 0.01 | 0.08 | 0.03 | 84 | 991.4 |
| 20260504120113 | 40 | 188 | 0.0 | 12.0 | 0.00 | 0.07 | 0.02 | 86 | 986.1 |
| 20260504081558 | 38 | 349 | 0.0 | 4.0 | 0.00 | 0.06 | 0.02 | 94 | 977.0 |